ROBUSTA-3A (MEDITERRAN*)

Last updated on Mon Sep 21 2026 00:03:45 GMT+0000 (Coordinated Universal Time)

1 60243U 24128J 26263.21918786 .00003765 00000+0 22452-3 0 9991 2 60243 61.9848 231.8835 0027915 146.8489 213.4363 15.12757014120791
UTC large
Height (km)
Speed (km/s)
/
Latitude / Longitude
Inclination (degrees)
Orbital Period (minutes)
Azimuth
Elevation
Range (km)
Doppler Factor

Next 0 passes for location: London (51.5072 / 0.1276)

No passes found over London.
ROBUSTA-3A (MEDITERRAN*)